Regional Weather Roundup
Issued by NWS

Home | Current Version | Previous Version | Text Only | Print | Product List | Glossary Off
Versions: 1 2 3 4 5 6 7 8 9 10 11 12 13 14 15 16 17 18 19 20 21 22 23 24 25 26 27 28 29 30 31 32 33 34 35 36 37 38 39 40 41 42 43 44 45 46 47 48 49 50

000
ASUS43 KOAX 232010
RWRNE

WEATHER ROUNDUP FOR NEBRASKA
NATIONAL WEATHER SERVICE OMAHA NE
300 PM CDT MON OCT 23 2017

NOTES: SATELLITE DATA IS BEING USED TO AUGMENT CLOUD COVER ABOVE
       12000 FEET.
       "FAIR" INDICATES FEW OR NO CLOUDS BELOW 12,000 FEET WITH NO
       SIGNIFICANT WEATHER AND/OR OBSTRUCTIONS TO VISIBILITY.


NEZ001>004-019>022-054>056-232100-
NEBRASKA PANHANDLE

CITY           SKY/WX    TMP DP  RH WIND       PRES   REMARKS
SCOTTSBLUFF    MOSUNNY   59  18  20 NW29G40   30.38F
ALLIANCE       SUNNY     56  18  22 NW29G44   30.33F
CHADRON        MOSUNNY   59  15  18 NW36G46   30.34S
GORDON         CLOUDY    60  19  20 NW24G36   30.29S
KIMBALL        SUNNY     54  17  23 N29G39    30.38F
SIDNEY         SUNNY     56  19  23 N31G41    30.36S
$$

NEZ057>060-069>072-079>082-232100-
SOUTHWEST NEBRASKA

CITY           SKY/WX    TMP DP  RH WIND       PRES   REMARKS
NORTH PLATTE   SUNNY     61  23  23 NW31G41   30.25R
IMPERIAL       SUNNY     62  19  19 NW26G40   30.30F
LEXINGTON      MOSUNNY   63  24  22 N20G41    30.21S
MCCOOK         SUNNY     65  19  17 N35G47    30.23F
OGALLALA       SUNNY     61  16  17 N37G51    30.29S
$$

NEZ005>010-023>029-035>040-094-232100-
NORTH CENTRAL NEBRASKA

CITY           SKY/WX    TMP DP  RH WIND       PRES   REMARKS
VALENTINE      PTSUNNY   58  25  28 N23G47    30.21S
AINSWORTH      LGT RAIN  56  29  35 NW22G40   30.20S
BROKEN BOW     MOSUNNY   58  25  28 NW31G47   30.19R
O`NEILL        PTSUNNY   56  32  39 NW28G45   30.14R
ORD            MOSUNNY   61  27  27 NW30G55   30.14R
THEDFORD       PTSUNNY   59  24  26 NW36G45   30.23S
$$

NEZ041-046>049-061>064-073>077-083>087-232100-
SOUTH CENTRAL NEBRASKA

CITY           SKY/WX    TMP DP  RH WIND       PRES   REMARKS
GRAND ISLAND   MOSUNNY   62  26  25 NW31G47   30.12F
AURORA         PTSUNNY   64  26  24 N25G41    30.12R
HASTINGS       MOSUNNY   63  25  23 NW31G45   30.15S
HEBRON         MOSUNNY   66  26  22 NW25G41   30.10S
HOLDREGE       MOSUNNY   62  28  28 NW26G37   30.19S
KEARNEY        MOSUNNY   62  25  24 N29G45    30.17S
YORK           MOSUNNY   61  28  29 NW28G37   30.09R
$$

NEZ011>018-030>034-042>045-232100-
NORTHEAST NEBRASKA

CITY           SKY/WX    TMP DP  RH WIND       PRES   REMARKS
NORFOLK        MOSUNNY   60  31  33 NW40G48   30.04S
ALBION         CLOUDY    63  31  29 NW35G46   30.09S
BLAIR          PTSUNNY   62  33  33 NW30G39   29.98F
COLUMBUS       SUNNY     61  29  29 NW31G41   30.06R
FREMONT        MOSUNNY   62  32  32 NW35G43   30.02S
TEKAMAH        PTSUNNY   61  31  32 NW22G38   29.99R
WAYNE          CLOUDY    60  27  28 NW29G39   30.03S
$$

NEZ050>053-065>068-078-088>093-232100-
SOUTHEAST NEBRASKA

CITY           SKY/WX    TMP DP  RH WIND       PRES   REMARKS
LINCOLN        MOSUNNY   66  29  24 MISG      30.05S
OMAHA EPPLEY   MOSUNNY   63  33  32 NW29G39   29.97S
BEATRICE       MOSUNNY   65  32  28 NW25G43   30.06S
FALLS CITY     SUNNY     65  33  30 NW24G39   29.99S
NEBRASKA CITY  PTSUNNY   64  34  32 NW28G38   29.99F
PLATTSMOUTH    PTSUNNY   65  32  29 NW31G41   29.98F
$$

NEZ044-045-051>053-067-232100-
OMAHA AREA

CITY           SKY/WX    TMP DP  RH WIND       PRES   REMARKS
OMAHA EPPLEY   MOSUNNY   63  33  32 NW29G39   29.97S
BLAIR          PTSUNNY   62  33  33 NW30G39   29.98F
FREMONT        MOSUNNY   62  32  32 NW35G43   30.02S
MILLARD        PTSUNNY   64  33  31 NW24G37   29.99F
OFFUTT AFB     SUNNY     64  31  30 NW20G36   29.98S
PLATTSMOUTH    PTSUNNY   65  32  29 NW31G41   29.98F
WAHOO          FAIR      65  29  25 NW33G39   30.01F
$$



USA.gov is the U.S. government's official web portal to all federal, state and local government web resources and services.